目前日期文章:201701 (128)

瀏覽方式: 標題列表 簡短摘要
發表時間 文章標題 人氣 留言
2017-01-31 【買新鮮】富麗出口米(2公斤x3包-組)【團購心得】 (0) (0)
2017-01-31 【JS嚴選】魅惑女神 性感丁字褲福袋(六件組)【分享】 (1) (0)
2017-01-31 (雨傘)專利握把自動開收反向折疊晴雨傘【團購評價】 (1) (0)
2017-01-31 聖保羅烘焙花園-2017年節新春限定經典禮盒(附提袋)(預購1-13到貨)【團購評價】 (0) (0)
2017-01-31 SAMPO聲寶 免紙袋吸力不衰減吸塵器【福利品】【團購心得】 (0) (0)
2017-01-30 年方十八超活氧雪花面膜100mL【超人氣商品】 (1) (0)
2017-01-30 【Bellapeel-蓓拉佩爾】AG保濕舒緩凝膠 100ml(蘆薈+葡萄柚)【推薦】 (0) (0)
2017-01-30 聖誕節粉紅豬小妹遊戲書-【真心勸敗】 (0) (0)
2017-01-30 【A’bella 菈蓓索系列】永不分離 項鍊【網購懶人包】 (0) (0)
2017-01-30 (任選)【天使霓裳】 熱情狂放祭 型男美人情侶海灘褲(黑底綠圖)-YK028【優惠】 (0) (0)
2017-01-29 [晉佳珠寶] Gemdealler Jewellery 女皇 天然南洋金珍珠鑽石18k金耳環 10.2mm【浪漫情人節】 (0) (0)
2017-01-29 韓版男女童加-加厚格子保暖襯衫-【團購評價】 (0) (0)
2017-01-29 【ABS貝斯貓】可愛小型後背包 拼布包(88-128粉色)【超值好康】 (0) (0)
2017-01-29 【5200mAh】Gigastone Power Bank 行動電源(P1H-52S)【搶占】 (0) (0)
2017-01-29 mr.BROWNIE 黑熊先生巧克力布朗尼 - 143388【真心勸敗】 (0) (0)
2017-01-28 【ABS貝斯貓】胖胖貓拼布包 斜背包 (紫色88-189)【網購特輯】 (0) (0)
2017-01-28 指甲彩-粉紅沙灘 - 1424【熱銷全球】 (0) (0)
2017-01-28 【8G】金士頓 SO-DIMM DDR4-2133(KCP421SS8-8)【超人氣商品】 (0) (0)
2017-01-27 富士通日本原裝低自放電充電電池-3號4入(HR-3UTA (4B))【超人氣商品】 (0) (0)
2017-01-27 蜜卡美睫紋繡 - 141796【團購心得】 (3) (0)
2017-01-27 義大天悅飯店 - 146890【團購心得】 (0) (0)
2017-01-27 晶華ZANWA 金貝貝3.8KG雙槽洗衣機-洗滌機(ZW-3802P)【評價】 (0) (0)
2017-01-27 足松養身會館《中科店》-正宗日式按摩課程【團購心得】 (8) (0)
2017-01-26 GoPace山林者 露營達人尼龍充氣床墊 L(GP17663)【超人氣商品】 (24) (0)
2017-01-26 花蓮鯉魚潭-東北獨木舟 - 139136【團購心得】 (4) (0)
2017-01-26 (33片-4包)【幫寶適】橘色幫寶適巧虎(拉拉褲)XL【團購心得】 (0) (0)
2017-01-26 明妍美學SPA - 140051【團購心得】 (13) (0)
2017-01-26 華陀扶元堂-漢方養生御飲【真心勸敗】 (0) (0)
2017-01-25 亞果元素【GoHealthy】BF1藍牙智慧體脂計【團購心得】 (1) (0)
2017-01-25 【健身大師】第三代 吸盤式可調坡度健走機 (可愛粉)【發燒情報】 (1) (0)
2017-01-25 幫寶適 超薄乾爽 嬰兒紙尿褲 (L) 50片 x4包【發燒情報】 (0) (0)
2017-01-25 EPSON LW-700可攜式標籤機(LW-700)【搶占】 (7) (0)
2017-01-25 【THAT!奇想生活】奶油刀波浪款銀色-紅握把(SPR21R)【評價】 (0) (0)
2017-01-24 Beats Tour2-Active Collection入耳式耳機-【團購評價】 (2) (0)
2017-01-24 韓版麻花高領針織毛衣【團購心得】 (0) (0)
2017-01-24 鐵三角-智慧型手機用耳塞式耳機(ATH-CKS550iS)【真心勸敗】 (0) (0)
2017-01-24 MORUL U5 PLUS 超強防水藍芽耳機4.1 運動藍牙耳機 無線音樂耳機 IPX7【超人氣商品】 (8) (0)
2017-01-24 冰箱飲料收納盒(4格裝)【真心勸敗】 (0) (0)
2017-01-23 大唐養生會館 - 144831【團購評價】 (0) (0)
2017-01-23 大唐養生會館 - 144831【團購評價】 (5) (0)
2017-01-22 AB-C 6K電子計數秤(AB-C-6K)【評價】 (0) (0)
2017-01-22 AB-C 6K電子計數秤(AB-C-6K)【評價】 (0) (0)
2017-01-21 美國OSTER-Ball Mason Jar隨鮮瓶果汁機(黑)BLSTMM-BBK【團購評價】 (0) (0)
2017-01-21 美國OSTER-Ball Mason Jar隨鮮瓶果汁機(黑)BLSTMM-BBK【團購評價】 (0) (0)
2017-01-20 韓版保暖防寒厚黃金絨男款顯瘦保暖長褲 1入起 - 145278【真心勸敗】 (0) (0)
2017-01-20 鬥牛士(板橋店) - 144065【團購評價】 (0) (0)
2017-01-20 聲寶超薄觸控變頻電磁爐(KM-SF12Q)【超人氣商品】 (0) (0)
2017-01-20 完美持色雙用眉筆 - 4980【專業藥妝】 (0) (0)
2017-01-20 HP 951XL洋紅色墨水匣(CN047AA)【評價】 (0) (0)
2017-01-19 可斜揹多功能自行車手機觸控圓筒包【超人氣商品】 (0) (0)
1 23
找更多相關文章與討論